FW1007 Weather Reports


Display with metric or nautical units.
time (UTC)temp
F
wind
direction
speed
MPH
gust
MPH
rain 1hr
in
rain 24hr
in
rain mn
in
humidity
%
barometer
mb
20260506121523 63 195 2.0 9.0 0.00 0.18 0.11 68 1006.4
20260506121022 63 213 5.0 9.0 0.00 0.18 0.11 68 1006.5
20260506120522 63 203 3.0 9.0 0.00 0.18 0.11 67 1006.5
20260506120046 63 264 4.0 8.0 0.00 0.18 0.11 67 1006.4
20260506115525 63 191 4.0 10.0 0.00 0.18 0.11 67 1006.4
20260506115021 64 211 3.0 10.0 0.00 0.18 0.11 67 1006.4
20260506114521 64 228 5.0 10.0 0.00 0.18 0.11 67 1006.4
20260506114021 63 259 3.0 9.0 0.00 0.18 0.11 68 1006.4
20260506113521 63 244 5.0 11.0 0.00 0.18 0.11 67 1006.5
20260506113021 63 196 5.0 11.0 0.00 0.18 0.11 67 1006.4
20260506112521 63 300 3.0 9.0 0.00 0.18 0.11 67 1006.4
20260506112020 63 150 4.0 9.0 0.00 0.18 0.11 68 1006.5
20260506111520 63 217 4.0 8.0 0.00 0.18 0.11 69 1006.5
20260506111020 63 200 4.0 7.0 0.00 0.18 0.11 68 1006.5
20260506110520 63 207 3.0 7.0 0.00 0.18 0.11 70 1006.5
20260506110020 63 264 3.0 9.0 0.00 0.18 0.11 69 1006.5
20260506105524 64 196 2.0 11.0 0.00 0.18 0.11 69 1006.6
20260506105020 64 165 4.0 12.0 0.00 0.18 0.11 68 1006.6
20260506104531 64 234 6.0 12.0 0.00 0.18 0.11 67 1006.5
20260506104024 64 202 3.0 11.0 0.00 0.18 0.11 67 1006.6
20260506103519 65 250 4.0 10.0 0.00 0.18 0.11 67 1006.5
20260506103035 65 223 3.0 10.0 0.00 0.18 0.11 67 1006.5
20260506102520 65 254 3.0 7.0 0.00 0.18 0.11 68 1006.6
20260506102018 65 312 4.0 7.0 0.00 0.18 0.11 67 1006.6
20260506101519 65 243 3.0 11.0 0.00 0.18 0.11 67 1006.6
20260506101018 65 154 3.0 11.0 0.00 0.18 0.11 68 1006.6
20260506100520 65 177 3.0 10.0 0.00 0.18 0.11 68 1006.6
20260506100015 64 248 0.0 10.0 0.00 0.18 0.11 70 1006.5
20260506095513 64 183 5.0 12.0 0.00 0.18 0.11 71 1006.5
20260506095014 63 206 5.0 12.0 0.00 0.18 0.11 72 1006.5
20260506094513 62 209 4.0 8.0 0.00 0.18 0.11 73 1006.5
20260506094012 61 193 4.0 8.0 0.00 0.18 0.11 73 1006.4
20260506093511 61 247 2.0 7.0 0.00 0.18 0.11 74 1006.5
20260506093019 61 288 3.0 7.0 0.00 0.18 0.11 74 1006.5
20260506092511 62 296 2.0 10.0 0.00 0.18 0.11 73 1006.6
20260506092011 62 248 2.0 10.0 0.00 0.18 0.11 72 1006.5
20260506091516 62 221 3.0 11.0 0.00 0.18 0.11 72 1006.6
20260506091011 62 220 5.0 11.0 0.00 0.18 0.11 71 1006.5
20260506090509 63 182 4.0 9.0 0.00 0.18 0.11 73 1006.5
20260506090008 62 21 3.0 9.0 0.00 0.18 0.11 73 1006.6
20260506085507 62 229 4.0 9.0 0.00 0.18 0.11 74 1006.5
20260506085006 61 173 4.0 10.0 0.00 0.18 0.11 75 1006.5
20260506084506 61 202 7.0 11.0 0.00 0.18 0.11 74 1006.6
20260506084010 61 247 4.0 10.0 0.00 0.18 0.11 74 1006.5
20260506083506 61 246 5.0 11.0 0.00 0.18 0.11 74 1006.4
20260506083005 61 222 4.0 10.0 0.00 0.18 0.11 75 1006.4
20260506082505 61 215 4.0 10.0 0.00 0.18 0.11 76 1006.4
20260506082003 61 180 4.0 9.0 0.00 0.18 0.11 76 1006.4
20260506081503 61 219 3.0 9.0 0.00 0.18 0.11 77 1006.4
20260506081005 61 233 3.0 9.0 0.00 0.18 0.11 78 1006.4
20260506080503 61 154 4.0 9.0 0.00 0.18 0.11 78 1006.4
20260506073058 61 178 3.0 10.0 0.00 0.18 0.11 81 1006.5
20260506072557 60 200 5.0 10.0 0.00 0.18 0.11 82 1006.4
20260506072056 60 209 4.0 8.0 0.00 0.18 0.11 83 1006.4
20260506071558 60 198 3.0 7.0 0.00 0.18 0.11 85 1006.4
20260506071052 59 184 3.0 8.0 0.00 0.18 0.11 86 1006.4
20260506070552 59 245 4.0 7.0 0.00 0.18 0.11 87 1006.5
20260506062043 57 187 3.0 7.0 0.00 0.18 0.11 94 1006.4
20260506061542 57 189 3.0 7.0 0.00 0.18 0.11 94 1006.4
20260506061041 56 249 2.0 8.0 0.00 0.18 0.11 95 1006.3
20260506060540 56 170 4.0 9.0 0.00 0.18 0.11 95 1006.4
20260506051031 54 249 1.0 8.0 0.00 0.18 0.11 96 1006.2
20260506050529 54 216 2.0 8.0 0.00 0.18 0.11 96 1006.4
20260506045027 54 202 2.0 6.0 0.00 0.18 0.11 95 1006.4
20260506044535 54 207 2.0 6.0 0.00 0.18 0.11 95 1006.4
20260506044028 54 196 2.0 6.0 0.00 0.18 0.11 95 1006.3
20260506043533 54 208 2.0 6.0 0.00 0.18 0.11 95 1006.3
20260506043025 54 205 2.0 6.0 0.00 0.18 0.11 95 1006.3
20260506042525 54 209 2.0 6.0 0.00 0.18 0.11 95 1006.4
20260506042024 54 177 2.0 5.0 0.00 0.18 0.11 95 1006.4
20260506041524 54 201 3.0 9.0 0.00 0.18 0.11 95 1006.3
20260506041023 54 190 2.0 6.0 0.00 0.18 0.11 95 1006.4
20260506040522 54 197 2.0 6.0 0.00 0.18 0.11 95 1006.3
20260506040027 54 310 3.0 6.0 0.00 0.18 0.11 95 1006.4
20260506035522 54 205 3.0 6.0 0.00 0.18 0.11 95 1006.4
20260506035021 54 194 3.0 6.0 0.01 0.18 0.11 95 1006.4
20260506034521 54 221 3.0 6.0 0.01 0.18 0.11 95 1006.5
20260506034020 54 208 2.0 6.0 0.01 0.18 0.11 95 1006.5
20260506033521 54 204 3.0 6.0 0.01 0.18 0.11 95 1006.5
20260506033019 54 207 2.0 6.0 0.01 0.18 0.11 95 1006.4
20260506032518 54 227 2.0 7.0 0.01 0.18 0.11 95 1006.4
20260506032019 54 192 3.0 7.0 0.01 0.18 0.11 95 1006.5
20260506031518 54 204 2.0 5.0 0.01 0.18 0.11 95 1006.5
20260506031017 54 168 2.0 6.0 0.01 0.18 0.11 95 1006.6
20260506030517 55 210 3.0 5.0 0.01 0.18 0.11 95 1006.5
20260506030016 55 206 2.0 4.0 0.01 0.18 0.11 95 1006.6
20260506025515 55 211 2.0 4.0 0.01 0.18 0.11 95 1006.6
20260506025017 55 211 2.0 4.0 0.00 0.17 0.10 95 1006.6
20260506024515 55 235 2.0 4.0 0.00 0.17 0.10 95 1006.6
20260506024015 55 196 1.0 5.0 0.00 0.17 0.10 95 1006.6
20260506023515 55 232 2.0 5.0 0.00 0.17 0.10 95 1006.6
20260506023020 55 215 1.0 5.0 0.00 0.17 0.10 95 1006.6
20260506022513 55 190 1.0 4.0 0.00 0.17 0.10 95 1006.6
20260506022017 55 189 1.0 4.0 0.00 0.17 0.10 95 1006.6
20260506021516 55 242 2.0 4.0 0.00 0.17 0.10 95 1006.7
20260506021016 55 180 0.0 4.0 0.00 0.17 0.10 95 1006.7
20260506020511 55 207 1.0 4.0 0.00 0.17 0.10 95 1006.9
20260506020013 55 209 2.0 5.0 0.00 0.17 0.10 95 1006.9
20260506015511 55 195 2.0 4.0 0.00 0.17 0.10 95 1006.9
20260506015011 55 167 1.0 7.0 0.00 0.17 0.10 95 1006.8
20260506014513 55 195 2.0 5.0 0.00 0.17 0.10 95 1006.8
20260506014010 55 195 2.0 6.0 0.00 0.17 0.10 95 1006.9
20260506013510 55 194 3.0 6.0 0.00 0.17 0.10 95 1006.9
20260506013013 55 192 2.0 7.0 0.00 0.17 0.10 95 1007.0
20260506012510 55 211 3.0 6.0 0.00 0.17 0.10 95 1006.9
20260506012009 55 239 2.0 6.0 0.00 0.17 0.10 95 1007.0
20260506011509 55 188 3.0 6.0 0.00 0.17 0.10 95 1007.0
20260506011008 55 201 2.0 7.0 0.00 0.17 0.10 95 1007.1
20260506010508 55 207 3.0 7.0 0.00 0.17 0.10 95 1006.9
20260506010012 55 196 2.0 7.0 0.00 0.17 0.10 95 1006.9
20260506005507 55 220 3.0 7.0 0.00 0.17 0.10 95 1007.0
20260506005009 55 205 2.0 6.0 0.00 0.17 0.10 95 1006.9
20260506004506 55 213 2.0 5.0 0.00 0.17 0.10 95 1006.9
20260506004011 56 188 2.0 5.0 0.00 0.17 0.10 95 1006.9
20260506003510 56 213 2.0 6.0 0.00 0.17 0.10 95 1007.0
20260506003004 56 196 3.0 5.0 0.00 0.17 0.10 95 1007.0
20260506002503 56 178 1.0 8.0 0.00 0.17 0.10 95 1007.1
20260506002002 56 185 3.0 7.0 0.00 0.17 0.10 95 1007.0
20260506001501 56 205 3.0 7.0 0.00 0.17 0.10 95 1007.0
20260506001101 56 236 3.0 7.0 0.00 0.17 0.10 95 1007.1
20260506000600 56 182 3.0 7.0 0.01 0.17 0.10 95 1007.1
20260506000101 56 165 2.0 7.0 0.01 0.17 0.10 95 1007.1
20260505235559 57 215 3.0 9.0 0.02 0.17 0.10 95 1007.2
20260505235058 57 211 2.0 9.0 0.02 0.17 0.10 95 1007.2
20260505234557 57 207 3.0 7.0 0.05 0.17 0.10 95 1007.2
20260505234055 57 200 3.0 8.0 0.06 0.17 0.10 95 1007.3
20260505233556 57 192 2.0 8.0 0.06 0.17 0.10 95 1007.3
20260505233053 57 198 2.0 5.0 0.07 0.17 0.10 95 1007.3
20260505232553 57 211 1.0 7.0 0.08 0.17 0.10 95 1007.3
20260505232056 57 172 3.0 7.0 0.09 0.17 0.10 94 1007.3
20260505231606 57 215 3.0 7.0 0.10 0.17 0.10 94 1007.3
20260505231050 57 201 3.0 7.0 0.10 0.17 0.10 94 1007.3
20260505230550 57 142 3.0 6.0 0.09 0.17 0.09 94 1007.4
20260505230049 57 203 0.0 4.0 0.09 0.17 0.09 94 1007.3
20260505225549 57 182 1.0 4.0 0.09 0.16 0.09 94 1007.5
20260505225049 57 228 1.0 4.0 0.08 0.15 0.08 94 1007.5
20260505224548 57 125 0.0 4.0 0.06 0.13 0.06 94 1007.5
20260505224047 57 219 0.0 4.0 0.04 0.11 0.04 94 1007.5
20260505223546 57 167 0.0 3.0 0.04 0.11 0.04 94 1007.5
20260505223046 57 156 0.0 3.0 0.03 0.10 0.03 94 1007.6
20260505222550 57 161 0.0 5.0 0.02 0.09 0.02 94 1007.6
20260505222044 57 217 1.0 5.0 0.01 0.08 0.01 94 1007.7
20260505221543 57 222 2.0 5.0 0.00 0.07 0.00 94 1007.7
20260505221042 57 215 1.0 5.0 0.00 0.07 0.00 94 1007.7
20260505220545 57 157 2.0 5.0 0.00 0.07 0.00 93 1007.7
20260505220045 57 219 0.0 4.0 0.00 0.07 0.00 94 1007.7
20260505215541 58 179 0.0 3.0 0.00 0.07 0.07 94 1007.8
20260505215040 58 209 0.0 3.0 0.00 0.07 0.07 94 1007.8
20260505214552 58 281 0.0 0.0 0.00 0.07 0.07 94 1007.7
20260505214040 58 281 0.0 0.0 0.00 0.07 0.07 94 1007.8
20260505213539 58 281 0.0 0.0 0.00 0.07 0.07 93 1007.8
20260505213041 58 281 0.0 0.0 0.00 0.07 0.07 93 1007.8
20260505212539 58 281 0.0 0.0 0.00 0.07 0.07 93 1007.8
20260505212039 58 281 0.0 0.0 0.00 0.07 0.07 93 1007.8
20260505211539 58 281 0.0 0.0 0.00 0.07 0.07 93 1007.9
20260505211039 58 281 0.0 0.0 0.00 0.07 0.07 93 1007.9
20260505210538 58 281 0.0 0.0 0.00 0.07 0.07 93 1008.0
20260505210038 58 281 0.0 0.0 0.00 0.07 0.07 93 1007.9
20260505205538 58 281 0.0 0.0 0.00 0.07 0.07 93 1008.0
20260505205038 58 281 0.0 0.0 0.00 0.07 0.07 93 1008.0
20260505204538 58 281 0.0 0.0 0.00 0.07 0.07 93 1008.0
20260505204040 58 281 0.0 0.0 0.00 0.07 0.07 93 1008.0
20260505203540 58 281 0.0 0.0 0.01 0.07 0.07 93 1007.9
20260505203053 58 281 0.0 0.0 0.01 0.07 0.07 93 1008.0
20260505202537 58 281 0.0 0.0 0.01 0.07 0.07 92 1007.9
20260505202038 58 281 0.0 0.0 0.01 0.07 0.07 93 1007.9
20260505201542 58 281 0.0 0.0 0.01 0.07 0.07 93 1007.9
20260505201037 58 281 0.0 0.0 0.01 0.07 0.07 92 1007.9
20260505200537 58 281 0.0 0.0 0.01 0.07 0.07 92 1008.0
20260505200046 58 281 0.0 0.0 0.01 0.07 0.07 92 1007.8
20260505195536 58 281 0.0 0.0 0.01 0.07 0.07 92 1007.9
20260505195036 58 281 0.0 0.0 0.01 0.07 0.07 92 1007.8
20260505194538 58 281 0.0 0.0 0.01 0.07 0.07 92 1007.7
20260505194036 58 281 0.0 0.0 0.01 0.07 0.07 92 1007.7
20260505193536 58 281 0.0 0.0 0.00 0.06 0.06 92 1007.7
20260505193036 58 281 0.0 0.0 0.00 0.06 0.06 92 1007.5
20260505192535 58 281 0.0 0.0 0.00 0.06 0.06 92 1007.6
20260505192037 58 281 0.0 0.0 0.00 0.06 0.06 92 1007.6
20260505191535 58 281 0.0 0.0 0.00 0.06 0.06 92 1007.6
20260505191035 58 281 0.0 0.0 0.00 0.06 0.06 92 1007.5
20260505190534 58 281 0.0 0.0 0.00 0.06 0.06 92 1007.5
20260505190036 58 281 0.0 0.0 0.00 0.06 0.06 92 1007.5
20260505185534 58 281 0.0 0.0 0.00 0.06 0.06 92 1007.5
20260505185034 58 281 0.0 0.0 0.00 0.06 0.06 92 1007.5
20260505184537 58 281 0.0 0.0 0.00 0.06 0.06 92 1007.4
20260505184036 58 281 0.0 0.0 0.00 0.06 0.06 91 1007.5
20260505183535 58 281 0.0 0.0 0.00 0.06 0.06 91 1007.4
20260505183033 58 281 0.0 0.0 0.00 0.06 0.06 91 1007.5
20260505182533 59 281 0.0 0.0 0.00 0.06 0.06 91 1007.5
20260505182032 59 281 0.0 0.0 0.00 0.06 0.06 91 1007.5
20260505181538 59 281 0.0 0.0 0.00 0.06 0.06 91 1007.4
20260505181033 59 281 0.0 0.0 0.00 0.06 0.06 91 1007.3
20260505180532 59 281 0.0 0.0 0.00 0.06 0.06 91 1007.3
20260505180032 59 281 0.0 0.0 0.00 0.06 0.06 91 1007.5
20260505175531 59 281 0.0 0.0 0.00 0.06 0.06 91 1007.5
20260505175031 59 281 0.0 0.0 0.00 0.06 0.06 91 1007.6
20260505174539 59 281 0.0 0.0 0.00 0.06 0.06 91 1007.6
20260505174031 59 281 0.0 0.0 0.00 0.06 0.06 91 1007.7
20260505173531 59 281 0.0 0.0 0.00 0.06 0.06 91 1007.7
20260505173029 59 281 0.0 0.0 0.00 0.06 0.06 91 1007.7
20260505172529 59 281 0.0 3.0 0.00 0.06 0.06 91 1007.7
20260505172028 59 281 0.0 3.0 0.00 0.06 0.06 91 1007.7
20260505171529 59 282 0.0 3.0 0.01 0.06 0.06 91 1007.7
20260505171028 59 301 0.0 4.0 0.01 0.06 0.06 91 1007.7
20260505170528 60 279 2.0 4.0 0.01 0.06 0.06 91 1007.7
20260505170029 60 256 0.0 3.0 0.01 0.06 0.06 91 1007.8
20260505165528 60 281 1.0 3.0 0.02 0.06 0.06 91 1007.8
20260505165028 60 284 1.0 3.0 0.02 0.06 0.06 91 1007.8
20260505164528 60 302 0.0 3.0 0.02 0.06 0.06 90 1007.7
20260505164027 60 277 1.0 3.0 0.02 0.06 0.06 90 1007.8
20260505163528 60 219 0.0 1.0 0.02 0.06 0.06 90 1007.8
20260505163032 61 219 0.0 1.0 0.03 0.06 0.06 90 1007.9
20260505162526 61 219 0.0 1.0 0.03 0.06 0.06 90 1007.9
20260505162026 61 219 0.0 1.0 0.04 0.06 0.06 90 1007.9
20260505161526 61 219 0.0 2.0 0.04 0.06 0.06 90 1007.9
20260505161026 61 219 0.0 2.0 0.04 0.06 0.06 89 1007.8
20260505160526 61 276 0.0 2.0 0.05 0.06 0.06 89 1008.0
20260505153024 61 223 2.0 5.0 0.03 0.03 0.03 87 1008.4
20260505152524 61 203 2.0 8.0 0.03 0.03 0.03 86 1008.5
20260505152023 61 209 3.0 8.0 0.02 0.02 0.02 86 1008.4
20260505151523 62 198 2.0 8.0 0.02 0.02 0.02 85 1008.5
20260505151023 62 213 3.0 7.0 0.01 0.01 0.01 84 1008.4
20260505150523 62 203 3.0 7.0 0.01 0.01 0.01 84 1008.3
20260505140521 65 254 2.0 5.0 0.00 0.00 0.00 77 1008.2
20260505125018 71 300 1.0 8.0 0.00 0.00 0.00 57 1008.0
20260505124518 71 298 1.0 4.0 0.00 0.00 0.00 57 1008.0
20260505124020 71 213 2.0 7.0 0.00 0.00 0.00 56 1007.9
20260505123516 71 212 2.0 7.0 0.00 0.00 0.00 57 1008.1
20260505123015 70 300 2.0 5.0 0.00 0.00 0.00 57 1008.1
20260505122514 70 273 2.0 4.0 0.00 0.00 0.00 61 1008.2
20260505122013 70 336 0.0 4.0 0.00 0.00 0.00 59 1008.2